| time (UTC) | temp F | wind direction | speed knots | gust knots | rain 1hr in | rain 24hr in | rain mn in | humidity % | barometer mb |
| 20260506194509 | 56 | 15 | 0.0 | 2.6 | 0.00 | 0.03 | 0.03 | 92 | 1014.2 |
| 20260506193005 | 56 | 16 | 0.0 | 2.6 | 0.00 | 0.03 | 0.03 | 92 | 1013.9 |
| 20260506191600 | 56 | 15 | 0.0 | 1.7 | 0.01 | 0.03 | 0.03 | 91 | 1013.7 |
| 20260506190048 | 56 | 320 | 0.0 | 2.6 | 0.02 | 0.04 | 0.03 | 91 | 1013.5 |
| 20260506184552 | 56 | 5 | 0.0 | 3.5 | 0.02 | 0.04 | 0.03 | 90 | 1013.4 |
| 20260506183043 | 57 | 5 | 0.9 | 3.5 | 0.02 | 0.04 | 0.03 | 89 | 1013.1 |
| 20260506181542 | 57 | 25 | 0.0 | 3.5 | 0.02 | 0.03 | 0.02 | 88 | 1013.2 |
| 20260506180040 | 57 | 33 | 2.6 | 5.2 | 0.00 | 0.18 | 0.01 | 86 | 1012.8 |
| 20260506174540 | 57 | 25 | 2.6 | 7.8 | 0.00 | 0.18 | 0.01 | 86 | 1012.7 |
| 20260506173046 | 57 | 48 | 2.6 | 6.1 | 0.00 | 0.18 | 0.01 | 84 | 1012.5 |
| 20260506171550 | 57 | 64 | 3.5 | 7.8 | 0.00 | 0.18 | 0.01 | 83 | 1012.3 |
| 20260506170138 | 58 | 51 | 3.5 | 12.2 | 0.00 | 0.18 | 0.01 | 81 | 1012.5 |
| 20260506164604 | 60 | 32 | 3.5 | 8.7 | 0.00 | 0.18 | 0.01 | 76 | 1012.2 |
| 20260506164503 | 60 | 28 | 3.5 | 8.7 | 0.00 | 0.18 | 0.01 | 75 | 1012.2 |
| 20260506163113 | 64 | 120 | 0.9 | 4.3 | 0.00 | 0.18 | 0.01 | 74 | 1011.9 |
| 20260506161600 | 64 | 144 | 1.7 | 7.8 | 0.00 | 0.18 | 0.01 | 73 | 1011.5 |
| 20260506160025 | 65 | 338 | 2.6 | 9.6 | 0.00 | 0.18 | 0.01 | 73 | 1011.2 |
| 20260506154601 | 64 | 205 | 2.6 | 9.6 | 0.00 | 0.18 | 0.01 | 74 | 1011.2 |
| 20260506153053 | 65 | 199 | 3.5 | 9.6 | 0.00 | 0.18 | 0.01 | 72 | 1011.0 |
| 20260506151544 | 65 | 237 | 2.6 | 10.4 | 0.00 | 0.18 | 0.01 | 71 | 1011.0 |
| 20260506150043 | 66 | 189 | 3.5 | 9.6 | 0.00 | 0.18 | 0.01 | 70 | 1011.1 |
| 20260506144544 | 66 | 142 | 3.5 | 11.3 | 0.00 | 0.18 | 0.01 | 70 | 1011.0 |
| 20260506141539 | 65 | 153 | 2.6 | 8.7 | 0.00 | 0.18 | 0.01 | 70 | 1011.2 |
| 20260506140050 | 65 | 152 | 3.5 | 9.6 | 0.00 | 0.18 | 0.01 | 70 | 1011.5 |
| 20260506134539 | 63 | 225 | 3.5 | 10.4 | 0.00 | 0.18 | 0.01 | 72 | 1011.6 |
| 20260506131533 | 64 | 197 | 1.7 | 7.8 | 0.00 | 0.18 | 0.01 | 71 | 1012.0 |
| 20260506130038 | 63 | 178 | 4.3 | 10.4 | 0.00 | 0.18 | 0.01 | 72 | 1012.1 |
| 20260506124539 | 63 | 171 | 2.6 | 7.0 | 0.00 | 0.18 | 0.01 | 73 | 1012.3 |
| 20260506121549 | 64 | 136 | 1.7 | 7.8 | 0.00 | 0.18 | 0.01 | 69 | 1012.4 |
| 20260506120013 | 64 | 225 | 1.7 | 6.1 | 0.00 | 0.24 | 0.01 | 70 | 1012.4 |
| 20260506114549 | 64 | 36 | 1.7 | 6.1 | 0.00 | 0.24 | 0.01 | 72 | 1012.3 |
| 20260506113042 | 63 | 146 | 2.6 | 7.8 | 0.00 | 0.24 | 0.01 | 74 | 1012.4 |
| 20260506111512 | 62 | 203 | 2.6 | 7.8 | 0.00 | 0.24 | 0.01 | 74 | 1012.6 |
| 20260506110012 | 63 | 114 | 3.5 | 9.6 | 0.00 | 0.24 | 0.01 | 72 | 1012.6 |
| 20260506104553 | 64 | 40 | 3.5 | 9.6 | 0.00 | 0.24 | 0.01 | 71 | 1012.5 |
| 20260506103052 | 65 | 168 | 3.5 | 11.3 | 0.00 | 0.24 | 0.01 | 71 | 1012.4 |
| 20260506101550 | 65 | 189 | 1.7 | 7.0 | 0.00 | 0.24 | 0.01 | 73 | 1012.7 |
| 20260506100033 | 64 | 193 | 5.2 | 9.6 | 0.00 | 0.24 | 0.01 | 73 | 1012.8 |
| 20260506094530 | 63 | 115 | 1.7 | 7.8 | 0.00 | 0.24 | 0.01 | 73 | 1012.9 |
| 20260506093047 | 63 | 312 | 0.9 | 5.2 | 0.00 | 0.24 | 0.01 | 75 | 1012.9 |
| 20260506091523 | 62 | 226 | 1.7 | 5.2 | 0.00 | 0.24 | 0.01 | 78 | 1012.8 |
| 20260506090021 | 61 | 220 | 0.0 | 2.6 | 0.00 | 0.24 | 0.01 | 79 | 1012.8 |
| 20260506084521 | 61 | 228 | 0.0 | 2.6 | 0.00 | 0.24 | 0.01 | 79 | 1012.9 |
| 20260506083017 | 60 | 273 | 0.9 | 5.2 | 0.00 | 0.24 | 0.01 | 82 | 1012.8 |
| 20260506081511 | 58 | 218 | 0.0 | 4.3 | 0.00 | 0.24 | 0.01 | 85 | 1012.7 |
| 20260506073005 | 54 | 204 | 0.0 | 1.7 | 0.00 | 0.24 | 0.01 | 95 | 1012.7 |
| 20260506071548 | 54 | 218 | 0.0 | 1.7 | 0.00 | 0.24 | 0.01 | 96 | 1012.5 |
| 20260506061558 | 51 | 241 | 0.0 | 0.0 | 0.00 | 0.24 | 0.01 | 95 | 1012.5 |
| 20260506044558 | 48 | 241 | 0.0 | 0.0 | 0.00 | 0.24 | 0.01 | 95 | 1011.6 |
| 20260506043053 | 48 | 241 | 0.0 | 0.0 | 0.00 | 0.24 | 0.01 | 95 | 1011.3 |
| 20260506041604 | 49 | 241 | 0.0 | 0.0 | 0.00 | 0.24 | 0.01 | 95 | 1011.4 |
| 20260506040135 | 49 | 241 | 0.0 | 0.0 | 0.00 | 0.24 | 0.01 | 95 | 1011.3 |
| 20260506034528 | 49 | 241 | 0.0 | 0.0 | 0.00 | 0.24 | 0.01 | 95 | 1011.3 |
| 20260506033027 | 49 | 241 | 0.0 | 0.0 | 0.00 | 0.24 | 0.01 | 95 | 1011.4 |
| 20260506031525 | 49 | 237 | 0.0 | 0.0 | 0.00 | 0.24 | 0.01 | 95 | 1011.4 |
| 20260506030023 | 49 | 237 | 0.0 | 0.0 | 0.01 | 0.24 | 0.01 | 95 | 1011.4 |
| 20260506024523 | 50 | 237 | 0.0 | 0.0 | 0.01 | 0.24 | 0.01 | 95 | 1011.2 |
| 20260506023022 | 50 | 237 | 0.0 | 0.0 | 0.01 | 0.24 | 0.01 | 95 | 1011.3 |
| 20260506021519 | 50 | 235 | 0.0 | 1.7 | 0.01 | 0.24 | 0.01 | 95 | 1011.2 |
| 20260506020030 | 50 | 220 | 0.0 | 1.7 | 0.00 | 0.23 | 0.00 | 95 | 1011.1 |
| 20260506014517 | 50 | 219 | 0.0 | 3.5 | 0.00 | 0.23 | 0.00 | 95 | 1011.2 |
| 20260506013019 | 50 | 260 | 0.0 | 0.9 | 0.00 | 0.23 | 0.00 | 94 | 1011.2 |
| 20260506011504 | 50 | 169 | 0.0 | 0.0 | 0.00 | 0.23 | 0.00 | 94 | 1011.2 |
| 20260506010038 | 50 | 169 | 0.0 | 0.0 | 0.00 | 0.23 | 0.00 | 94 | 1011.2 |
| 20260506004519 | 51 | 169 | 0.0 | 0.0 | 0.00 | 0.23 | 0.00 | 94 | 1011.4 |
| 20260506003005 | 51 | 169 | 0.0 | 0.0 | 0.00 | 0.23 | 0.00 | 94 | 1011.6 |
| 20260506001502 | 51 | 169 | 0.0 | 0.0 | 0.00 | 0.23 | 0.00 | 94 | 1011.7 |
| 20260506000124 | 51 | 169 | 0.0 | 0.0 | 0.00 | 0.23 | 0.00 | 94 | 1011.5 |
| 20260505234615 | 52 | 169 | 0.0 | 0.0 | 0.00 | 0.23 | 0.00 | 94 | 1011.6 |
| 20260505233058 | 52 | 169 | 0.0 | 0.0 | 0.00 | 0.23 | 0.00 | 94 | 1011.7 |
| 20260505231558 | 52 | 169 | 0.0 | 0.0 | 0.00 | 0.23 | 0.00 | 94 | 1011.8 |
| 20260505230052 | 52 | 169 | 0.0 | 0.0 | 0.00 | 0.23 | 0.00 | 94 | 1012.1 |
| 20260505224553 | 52 | 126 | 0.9 | 2.6 | 0.00 | 0.23 | 0.00 | 94 | 1011.9 |
| 20260505223050 | 52 | 53 | 0.0 | 0.0 | 0.00 | 0.23 | 0.00 | 94 | 1012.1 |
| 20260505221556 | 52 | 51 | 0.0 | 0.0 | 0.00 | 0.23 | 0.00 | 94 | 1012.2 |
| 20260505220013 | 52 | 51 | 0.0 | 0.0 | 0.00 | 0.23 | 0.23 | 93 | 1012.2 |
| 20260505214514 | 52 | 52 | 0.0 | 0.0 | 0.00 | 0.23 | 0.23 | 93 | 1012.4 |
| 20260505213047 | 52 | 52 | 0.0 | 0.0 | 0.00 | 0.23 | 0.23 | 93 | 1012.3 |
| 20260505211614 | 53 | 52 | 0.0 | 0.0 | 0.00 | 0.23 | 0.23 | 93 | 1012.4 |
| 20260505210146 | 53 | 52 | 0.9 | 5.2 | 0.00 | 0.23 | 0.23 | 93 | 1012.4 |
| 20260505204531 | 54 | 13 | 2.6 | 6.1 | 0.00 | 0.23 | 0.23 | 93 | 1012.3 |
| 20260505203031 | 54 | 53 | 3.5 | 9.6 | 0.00 | 0.23 | 0.23 | 93 | 1011.9 |
| 20260505201537 | 54 | 45 | 1.7 | 6.1 | 0.00 | 0.23 | 0.23 | 93 | 1011.3 |
| 20260505200002 | 53 | 173 | 0.0 | 1.7 | 0.00 | 0.23 | 0.23 | 93 | 1011.2 |